IRIDIUM 54 [+]

Last updated on Wed Apr 17 2019 04:07:30 GMT+0100 (British Summer Time)

1 25171U 98010C 19106.42238039 .00000067 00000-0 10494-4 0 9997 2 25171 86.4193 71.1128 0010078 93.3528 266.8832 14.54570166107793
UTC large
Height (km)
Speed (km/s)
/
Latitude / Longitude
Inclination (degrees)
Orbital Period (minutes)
Azimuth
Elevation
Range (km)
Doppler Factor

Next 0 passes for location: London (51.5072 / 0.1276)

Sorry there are no passes over London.